When you browse on this site, cookies collect data to enhance your experience and personalize the content and advertising you see.
Visit our Privacy Policy to learn more. By continuing to use the site, you agree to this use of cookies and data.
EN

Hourly Weather Luanda

Today, 4 July, Saturday

Time Temperature Precipitation Wind Pressure Humidity
00:00 +22°C° 0 mm 1 mps 754 mmHg 96%
01:00 +21°C° 0 mm 1 mps 755 mmHg 96%
02:00 +22°C° 0 mm 1 mps 754 mmHg 95%
03:00 +22°C° 0 mm 1 mps 754 mmHg 94%
04:00 +22°C° 0 mm 1 mps 754 mmHg 93%
05:00 +23°C° 0 mm 2 mps 754 mmHg 90%
06:00 +23°C° 0 mm 2 mps 754 mmHg 87%
07:00 +24°C° 0 mm 2 mps 755 mmHg 84%
08:00 +25°C° 0 mm 2 mps 755 mmHg 73%
09:00 +27°C° 0 mm 1 mps 754 mmHg 63%
10:00 +29°C° 0 mm 1 mps 754 mmHg 53%
11:00 +31°C° 0 mm 2 mps 754 mmHg 44%
12:00 +35°C° 0 mm 2 mps 753 mmHg 35%
13:00 +37°C° 0 mm 3 mps 752 mmHg 27%
14:00 +35°C° 0 mm 4 mps 752 mmHg 37%
15:00 +32°C° 0 mm 5 mps 751 mmHg 48%
16:00 +29°C° 0 mm 6 mps 750 mmHg 59%
17:00 +27°C° 0 mm 6 mps 750 mmHg 69%
18:00 +25°C° 0 mm 5 mps 751 mmHg 79%
19:00 +22°C° 0 mm 4 mps 751 mmHg 89%
20:00 +22°C° 0 mm 3 mps 752 mmHg 91%
21:00 +21°C° 0 mm 2 mps 752 mmHg 93%
22:00 +22°C° 0 mm 1 mps 752 mmHg 95%
23:00 +21°C° 0 mm 1 mps 753 mmHg 95%

Tomorrow, 5 July, Sunday

Time Temperature Precipitation Wind Pressure Humidity
00:00 +21°C° 0 mm 1 mps 753 mmHg 95%
01:00 +21°C° 0 mm 1 mps 753 mmHg 95%
02:00 +20°C° 0 mm 1 mps 753 mmHg 96%
03:00 +20°C° 0 mm 1 mps 753 mmHg 96%
04:00 +20°C° 0 mm 1 mps 753 mmHg 96%
05:00 +21°C° 0 mm 1 mps 753 mmHg 96%
06:00 +21°C° 0 mm 1 mps 754 mmHg 95%
07:00 +20°C° 0 mm 2 mps 754 mmHg 95%
08:00 +24°C° 0 mm 1 mps 754 mmHg 81%
09:00 +27°C° 0 mm 1 mps 754 mmHg 67%
10:00 +30°C° 0 mm 1 mps 754 mmHg 53%
11:00 +31°C° 0 mm 2 mps 754 mmHg 49%
12:00 +33°C° 0 mm 3 mps 753 mmHg 44%
13:00 +34°C° 0 mm 4 mps 752 mmHg 40%
14:00 +33°C° 0 mm 4 mps 751 mmHg 48%
15:00 +30°C° 0 mm 5 mps 751 mmHg 56%
16:00 +28°C° 0 mm 5 mps 750 mmHg 63%
17:00 +27°C° 0 mm 5 mps 751 mmHg 72%
18:00 +25°C° 0 mm 5 mps 751 mmHg 81%
19:00 +22°C° 0 mm 5 mps 752 mmHg 91%
20:00 +22°C° 0 mm 3 mps 753 mmHg 92%
21:00 +21°C° 0 mm 2 mps 753 mmHg 94%
22:00 +21°C° 0 mm 1 mps 754 mmHg 96%
23:00 +22°C° 0 mm 1 mps 754 mmHg 95%

Day after tomorrow, 6 July, Monday

Time Temperature Precipitation Wind Pressure Humidity
00:00 +22°C° 0 mm 1 mps 754 mmHg 95%
01:00 +21°C° 0 mm 2 mps 755 mmHg 94%
02:00 +20°C° 0 mm 2 mps 754 mmHg 94%
03:00 +21°C° 0 mm 1 mps 754 mmHg 95%
04:00 +20°C° 0 mm 1 mps 754 mmHg 95%
05:00 +21°C° 0 mm 1 mps 754 mmHg 95%
06:00 +20°C° 0 mm 2 mps 755 mmHg 94%
07:00 +20°C° 0 mm 2 mps 755 mmHg 93%
08:00 +23°C° 0 mm 2 mps 755 mmHg 83%
09:00 +25°C° 0 mm 1 mps 755 mmHg 73%
10:00 +27°C° 0 mm 1 mps 756 mmHg 63%
11:00 +29°C° 0 mm 2 mps 755 mmHg 56%
12:00 +30°C° 0 mm 2 mps 754 mmHg 49%
13:00 +33°C° 0 mm 3 mps 754 mmHg 42%
14:00 +32°C° 0 mm 4 mps 753 mmHg 47%
15:00 +29°C° 0 mm 5 mps 752 mmHg 52%
16:00 +28°C° 0 mm 5 mps 752 mmHg 58%
17:00 +27°C° 0 mm 5 mps 752 mmHg 67%
18:00 +25°C° 0 mm 5 mps 753 mmHg 77%
19:00 +22°C° 0 mm 4 mps 753 mmHg 87%
20:00 +21°C° 0 mm 4 mps 753 mmHg 89%
21:00 +21°C° 0 mm 3 mps 754 mmHg 91%
22:00 +20°C° 0 mm 3 mps 755 mmHg 94%
23:00 +20°C° 0 mm 3 mps 754 mmHg 94%

7 July, Tuesday

Time Temperature Precipitation Wind Pressure Humidity
00:00 +20°C° 0 mm 2 mps 754 mmHg 95%
01:00 +19°C° 0 mm 2 mps 754 mmHg 96%
02:00 +19°C° 0 mm 2 mps 754 mmHg 96%
03:00 +19°C° 0 mm 2 mps 754 mmHg 95%
04:00 +20°C° 0 mm 2 mps 754 mmHg 95%
05:00 +20°C° 0 mm 2 mps 754 mmHg 91%
06:00 +21°C° 0 mm 2 mps 754 mmHg 88%
07:00 +23°C° 0 mm 1 mps 754 mmHg 84%
08:00 +24°C° 0 mm 1 mps 755 mmHg 77%
09:00 +25°C° 0 mm 1 mps 755 mmHg 71%
10:00 +26°C° 0 mm 1 mps 755 mmHg 65%
11:00 +27°C° 0 mm 1 mps 754 mmHg 58%
12:00 +29°C° 0 mm 2 mps 753 mmHg 52%
13:00 +31°C° 0 mm 3 mps 753 mmHg 46%
14:00 +30°C° 0 mm 3 mps 752 mmHg 51%
15:00 +29°C° 0 mm 4 mps 751 mmHg 56%
16:00 +27°C° 0 mm 5 mps 751 mmHg 61%
17:00 +26°C° 0 mm 5 mps 751 mmHg 68%
18:00 +23°C° 0 mm 4 mps 751 mmHg 76%
19:00 +22°C° 0 mm 4 mps 752 mmHg 84%
20:00 +21°C° 0 mm 3 mps 752 mmHg 87%
21:00 +20°C° 0 mm 3 mps 753 mmHg 90%
22:00 +20°C° 0 mm 2 mps 753 mmHg 93%
23:00 +20°C° 0 mm 1 mps 753 mmHg 93%

8 July, Wednesday

Time Temperature Precipitation Wind Pressure Humidity
00:00 +20°C° 0 mm 1 mps 754 mmHg 94%
01:00 +20°C° 0 mm 1 mps 754 mmHg 95%
02:00 +20°C° 0 mm 1 mps 753 mmHg 94%
03:00 +19°C° 0 mm 2 mps 753 mmHg 93%
04:00 +20°C° 0 mm 2 mps 753 mmHg 92%
05:00 +20°C° 0 mm 2 mps 754 mmHg 92%
06:00 +19°C° 0 mm 2 mps 754 mmHg 92%
07:00 +19°C° 0 mm 2 mps 754 mmHg 92%
08:00 +23°C° 0 mm 1 mps 754 mmHg 80%
09:00 +25°C° 0 mm 1 mps 754 mmHg 69%
10:00 +28°C° 0 mm 1 mps 755 mmHg 57%
11:00 +29°C° 0 mm 2 mps 754 mmHg 53%
12:00 +30°C° 0 mm 2 mps 753 mmHg 50%
13:00 +31°C° 0 mm 3 mps 753 mmHg 46%
14:00 +30°C° 0 mm 4 mps 752 mmHg 51%
15:00 +29°C° 0 mm 4 mps 752 mmHg 56%
16:00 +27°C° 0 mm 5 mps 752 mmHg 61%
17:00 +26°C° 0 mm 5 mps 752 mmHg 68%
18:00 +23°C° 0 mm 5 mps 752 mmHg 76%
19:00 +22°C° 0 mm 4 mps 753 mmHg 83%
20:00 +21°C° 0 mm 4 mps 753 mmHg 86%
21:00 +21°C° 0 mm 3 mps 754 mmHg 88%
22:00 +20°C° 0 mm 3 mps 754 mmHg 91%
23:00 +20°C° 0 mm 3 mps 754 mmHg 92%

9 July, Thursday

Time Temperature Precipitation Wind Pressure Humidity
00:00 +20°C° 0 mm 2 mps 754 mmHg 93%
01:00 +19°C° 0 mm 2 mps 754 mmHg 94%
02:00 +19°C° 0 mm 2 mps 754 mmHg 94%
03:00 +19°C° 0 mm 2 mps 754 mmHg 94%
04:00 +18°C° 0 mm 2 mps 754 mmHg 94%
05:00 +19°C° 0 mm 2 mps 754 mmHg 94%
06:00 +19°C° 0 mm 2 mps 755 mmHg 93%
07:00 +19°C° 0 mm 2 mps 755 mmHg 93%
08:00 +23°C° 0 mm 1 mps 755 mmHg 80%
09:00 +25°C° 0 mm 1 mps 755 mmHg 67%
10:00 +28°C° 0 mm 1 mps 755 mmHg 54%
11:00 +29°C° 0 mm 2 mps 755 mmHg 49%
12:00 +31°C° 0 mm 3 mps 754 mmHg 44%
13:00 +33°C° 0 mm 4 mps 753 mmHg 39%
14:00 +32°C° 0 mm 5 mps 753 mmHg 44%
15:00 +30°C° 0 mm 5 mps 752 mmHg 49%
16:00 +28°C° 0 mm 6 mps 752 mmHg 55%
17:00 +26°C° 0 mm 5 mps 752 mmHg 64%
18:00 +25°C° 0 mm 5 mps 752 mmHg 74%
19:00 +22°C° 0 mm 5 mps 753 mmHg 84%
20:00 +21°C° 0 mm 5 mps 753 mmHg 87%
21:00 +21°C° 0 mm 4 mps 754 mmHg 90%
22:00 +20°C° 0 mm 4 mps 754 mmHg 93%
23:00 +20°C° 0 mm 3 mps 754 mmHg 94%
Show more